{"data":{"norad_id":60061,"intl_designator":"2024-113C","name":"STARLINK-11167 [DTC]","alt_names":[],"object_type":"PAYLOAD","status":"ACTIVE","operator":null,"country":"US","launch_date":"2024-06-19","launch_site_code":"AFWTR","launch_vehicle":null,"mission":null,"orbit_class":"UNKNOWN","rcs_meters":null,"size_class":null,"mass_kg":null,"dimensions":null,"purposes":["comms"],"wikipedia_slug":null,"has_3d_model":false,"image_url":null,"decayed_at":null,"tle_current":{"epoch":"2026-05-25T02:38:20.181120Z","epoch_age_seconds":76064,"freshness":"FRESH","line1":"1 60061U 24113C   26145.10995580  .00001495  00000+0  17192-4 0  9991","line2":"2 60061  53.1587 174.5039 0001092  73.1268 286.9870 15.69721814111863","mean_motion":15.69721814,"eccentricity":0.0001092,"inclination_deg":53.1587,"raan_deg":174.5039,"arg_perigee_deg":73.1268,"mean_anomaly_deg":286.987,"bstar":1.7192e-5,"rev_number":11186,"period_min":91.735999790342,"perigee_km":358.95717245614,"apogee_km":360.4287145158,"semimajor_km":6737.829943486,"source":"CELESTRAK","updated_at":"2026-05-25T13:38:19.156749Z"}}}